Regional Weather Roundup
Issued by NWS Goodland, KS

Home | Current Version | Previous Version | Graphics & Text | Print | Product List | Glossary On
Versions: 1 2 3 4 5 6 7 8 9 10 11 12 13 14 15 16 17 18 19 20 21 22 23 24 25 26 27 28 29 30 31 32 33 34 35 36 37 38 39 40 41 42 43 44 45 46 47 48 49 50
000
ASUS43 KGLD 222059
RWRGLD

GOODLAND FORECAST AREA HOURLY WEATHER ROUNDUP
NATIONAL WEATHER SERVICE GOODLAND KS
300 PM MDT MON SEP 22 2014

...OFFICIAL OBSERVATIONS...

CITY           SKY/WX    TMP DP  RH WIND       PRES   REMARKS
GOODLAND KS    CLOUDY    76  51  41 S28G36    30.14F
HILL CITY KS   MOSUNNY   81  45  28 S13G23    30.18F
IMPERIAL NEB   CLOUDY    69  55  60 SE18      30.11F
MCCOOK NEB     CLOUDY    76  45  33 SE14      30.14F
AKRON CO       PTSUNNY   75  56  51 S12G23    30.11F
BURLINGTON CO  CLOUDY    75  51  43 S25G35    30.14F
LIMON CO       PTSUNNY   76  50  40 S16       30.13F
$$

...UNOFFICIAL OBSERVATIONS...

CITY           SKY/WX    TMP DP  RH WIND       PRES   REMARKS
COLBY KS       SUNNY     75  50  41 SE18G24   30.17F
GOVE KS          N/A     77  32  19 MISG        N/A
NORTON KS      PTSUNNY   79  37  22 SE15G22   30.17F
SHARON SPRINGS   N/A     76  51  41 S22G35      N/A
WAKEENEY KS      N/A     78  40  26 MISG        N/A
TRENTON NEB      N/A     75  32  20 S15         N/A
YUMA CO          N/A     75  55  49 SE9G26      N/A
$$


USA.gov is the U.S. government's official web portal to all federal, state and local government web resources and services.